sat.trackr.live / text

‹ back to catalog

STARLINK-36914

NORAD 67942 · 2026-037L

PAYLOAD ACTIVE UNKNOWN

§ Identity

Operator
Country
US
Launch date
2026-02-24
Launch site
AFETR
Launch vehicle
Mass (kg)
RCS (m²)

Purposes: comms

External: N2YO · Heavens-Above · Gunter

§ Orbital elements

Epoch: 2026-09-19T04:33:31.728384Z

Period
94.27 min
Inclination
43.0042°
Eccentricity
0.0001121
Mean motion
15.27572698 rev/d
Perigee alt
482.3 km
Apogee alt
483.8 km
Semi-major
6,861.2 km
B*
5.9599e-4
RAAN
177.9578°
Arg perigee
274.4025°
Mean anomaly
85.6699°
Rev number
3,293

§ Raw data

STARLINK-369141 67942U 26037L   26262.18995056  .00016171  00000+0  59599-3 0  99922 67942  43.0042 177.9578 0001121 274.4025  85.6699 15.27572698 32938

JSON: /api/v1/satellites/67942 · /tle

For live sub-satellite position, see the globe view (requires WebGL).

§ Visibility from observer

Set your observer location to see the next 7 days of passes ≥ 10°. The values pass through the URL so the page stays shareable.

No JS? Fill the form by hand. The geolocation button needs JavaScript.